Time,TemperatureF,DewpointF,PressureIn,WindDirection,WindDirectionDegrees,WindSpeedMPH,WindSpeedGustMPH,Humidity,HourlyPrecipIn,Conditions,Clouds,dailyrainin,SoftwareType,DateUTC
2013-05-13 00:01:00,46.4,25.1,29.85,ESE,112,0.0,0.0,43,0.00,,---,0.00,VWS V14.00,2013-05-13 04:01:00,
2013-05-13 00:06:00,46.2,25.0,29.85,SSW,202,2.9,2.9,43,0.00,,---,0.00,VWS V14.00,2013-05-13 04:06:00,
2013-05-13 00:11:00,46.0,25.4,29.85,SE,135,3.8,3.8,44,0.00,,---,0.00,VWS V14.00,2013-05-13 04:11:00,
2013-05-13 00:16:00,45.9,25.2,29.85,ESE,112,0.0,0.0,44,0.00,,---,0.00,VWS V14.00,2013-05-13 04:16:00,
2013-05-13 00:21:00,45.3,25.2,29.85,ESE,112,2.5,2.5,45,0.00,,---,0.00,VWS V14.00,2013-05-13 04:21:00,
2013-05-13 00:26:00,45.0,25.4,29.85,ESE,112,0.0,0.0,46,0.00,,---,0.00,VWS V14.00,2013-05-13 04:26:00,
2013-05-13 00:31:00,44.6,25.1,29.85,NE,45,1.3,1.3,46,0.00,,---,0.00,VWS V14.00,2013-05-13 04:31:00,
2013-05-13 00:36:00,44.6,25.6,29.85,East,90,0.9,0.9,47,0.00,,---,0.00,VWS V14.00,2013-05-13 04:36:00,
2013-05-13 00:41:00,44.2,25.8,29.85,NE,45,0.0,0.0,48,0.00,,---,0.00,VWS V14.00,2013-05-13 04:41:00,
2013-05-13 00:46:00,44.2,25.8,29.85,South,180,2.0,2.0,48,0.00,,---,0.00,VWS V14.00,2013-05-13 04:46:00,
2013-05-13 00:51:00,44.2,25.8,29.85,East,90,0.0,0.0,48,0.00,,---,0.00,VWS V14.00,2013-05-13 04:51:00,
2013-05-13 00:56:00,43.9,26.0,29.85,East,90,1.3,1.3,49,0.00,,---,0.00,VWS V14.00,2013-05-13 04:56:00,
2013-05-13 01:01:00,43.7,25.8,29.85,SE,135,1.1,1.1,49,0.00,,---,0.00,VWS V14.00,2013-05-13 05:01:00,
2013-05-13 01:06:00,43.5,25.6,29.85,ESE,112,0.0,0.0,49,0.00,,---,0.00,VWS V14.00,2013-05-13 05:06:00,
2013-05-13 01:11:00,43.2,25.8,29.85,SW,225,0.0,0.0,50,0.00,,---,0.00,VWS V14.00,2013-05-13 05:11:00,
2013-05-13 01:16:00,42.4,26.1,29.85,ESE,112,0.0,0.0,52,0.00,,---,0.00,VWS V14.00,2013-05-13 05:16:00,
2013-05-13 01:21:00,42.1,25.7,29.85,ESE,112,0.0,0.0,52,0.00,,---,0.00,VWS V14.00,2013-05-13 05:21:00,
2013-05-13 01:26:00,41.5,25.7,29.85,SW,225,0.0,0.0,53,0.00,,---,0.00,VWS V14.00,2013-05-13 05:26:00,
2013-05-13 01:31:00,41.4,26.0,29.85,SE,135,0.0,0.0,54,0.00,,---,0.00,VWS V14.00,2013-05-13 05:31:00,
2013-05-13 01:36:00,40.8,25.9,29.85,SE,135,0.0,0.0,55,0.00,,---,0.00,VWS V14.00,2013-05-13 05:36:00,
2013-05-13 01:41:00,40.6,26.2,29.85,SE,135,0.0,0.0,56,0.00,,---,0.00,VWS V14.00,2013-05-13 05:41:00,
2013-05-13 01:46:00,40.3,26.3,29.85,SSW,202,1.1,1.1,57,0.00,,---,0.00,VWS V14.00,2013-05-13 05:46:00,
2013-05-13 01:51:00,40.5,26.9,29.85,SSE,158,1.3,1.3,58,0.00,,---,0.00,VWS V14.00,2013-05-13 05:51:00,
2013-05-13 01:56:00,39.9,27.2,29.85,SSE,158,0.0,0.0,60,0.00,,---,0.00,VWS V14.00,2013-05-13 05:56:00,
2013-05-13 02:01:00,39.6,26.8,29.85,SSE,158,0.0,0.0,60,0.00,,---,0.00,VWS V14.00,2013-05-13 06:01:00,
2013-05-13 02:06:00,39.2,26.9,29.85,SSE,158,0.0,0.0,61,0.00,,---,0.00,VWS V14.00,2013-05-13 06:06:00,
2013-05-13 02:11:00,38.8,26.6,29.85,SSE,158,0.0,0.0,61,0.00,,---,0.00,VWS V14.00,2013-05-13 06:11:00,
2013-05-13 02:16:00,38.8,26.6,29.85,SSE,158,0.0,0.0,61,0.00,,---,0.00,VWS V14.00,2013-05-13 06:16:00,
2013-05-13 02:21:00,38.5,26.6,29.85,SSE,158,0.0,0.0,62,0.00,,---,0.00,VWS V14.00,2013-05-13 06:21:00,
2013-05-13 02:26:00,38.3,26.8,29.85,SSE,158,0.0,0.0,63,0.00,,---,0.00,VWS V14.00,2013-05-13 06:26:00,
2013-05-13 02:31:00,38.1,26.6,29.85,SSE,158,0.0,0.0,63,0.00,,---,0.00,VWS V14.00,2013-05-13 06:31:00,
2013-05-13 02:36:00,38.1,26.6,29.85,SSE,158,0.0,0.0,63,0.00,,---,0.00,VWS V14.00,2013-05-13 06:36:00,
2013-05-13 02:41:00,37.8,27.1,29.85,SSE,158,0.0,0.0,65,0.00,,---,0.00,VWS V14.00,2013-05-13 06:41:00,
2013-05-13 02:46:00,37.6,27.3,29.85,SSE,158,0.0,0.0,66,0.00,,---,0.00,VWS V14.00,2013-05-13 06:46:00,
2013-05-13 02:51:00,37.4,27.5,29.85,SSE,158,0.0,0.0,67,0.00,,---,0.00,VWS V14.00,2013-05-13 06:51:00,
2013-05-13 02:56:00,37.4,27.5,29.85,ENE,68,0.0,0.0,67,0.00,,---,0.00,VWS V14.00,2013-05-13 06:56:00,
2013-05-13 03:01:00,37.2,28.0,29.85,ENE,68,0.0,0.0,69,0.00,,---,0.00,VWS V14.00,2013-05-13 07:01:00,
2013-05-13 03:06:00,37.2,28.4,29.85,ENE,68,0.0,0.0,70,0.00,,---,0.00,VWS V14.00,2013-05-13 07:06:00,
2013-05-13 03:11:00,37.2,28.7,29.88,ENE,68,0.0,0.0,71,0.00,,---,0.00,VWS V14.00,2013-05-13 07:11:00,
2013-05-13 03:16:00,37.0,28.5,29.88,SSE,158,0.0,0.0,71,0.00,,---,0.00,VWS V14.00,2013-05-13 07:16:00,
2013-05-13 03:21:00,37.0,28.5,29.88,SSE,158,0.0,0.0,71,0.00,,---,0.00,VWS V14.00,2013-05-13 07:21:00,
2013-05-13 03:26:00,36.9,28.0,29.85,SSE,158,0.0,0.0,70,0.00,,---,0.00,VWS V14.00,2013-05-13 07:26:00,
2013-05-13 03:31:00,36.7,28.5,29.85,SSE,158,0.0,0.0,72,0.00,,---,0.00,VWS V14.00,2013-05-13 07:31:00,
2013-05-13 03:36:00,36.3,28.5,29.85,SSE,158,0.0,0.0,73,0.00,,---,0.00,VWS V14.00,2013-05-13 07:36:00,
2013-05-13 03:40:00,36.3,28.5,29.85,SSE,158,0.0,0.0,73,0.00,,---,0.00,VWS V14.00,2013-05-13 07:40:00,
2013-05-13 03:45:00,36.1,28.3,29.85,ESE,112,0.0,0.0,73,0.00,,---,0.00,VWS V14.00,2013-05-13 07:45:00,
2013-05-13 03:50:00,36.3,28.5,29.85,ESE,112,0.0,0.0,73,0.00,,---,0.00,VWS V14.00,2013-05-13 07:50:00,
2013-05-13 03:55:00,36.3,28.5,29.88,East,90,0.0,0.0,73,0.00,,---,0.00,VWS V14.00,2013-05-13 07:55:00,
2013-05-13 04:00:00,36.3,28.8,29.88,East,90,0.0,0.0,74,0.00,,---,0.00,VWS V14.00,2013-05-13 08:00:00,
2013-05-13 04:05:00,36.1,28.7,29.88,East,90,0.0,0.0,74,0.00,,---,0.00,VWS V14.00,2013-05-13 08:05:00,
2013-05-13 04:10:00,36.0,28.8,29.88,ESE,112,0.0,0.0,75,0.00,,---,0.00,VWS V14.00,2013-05-13 08:10:00,
2013-05-13 04:15:00,35.8,28.6,29.88,ESE,112,0.0,0.0,75,0.00,,---,0.00,VWS V14.00,2013-05-13 08:15:00,
2013-05-13 04:20:00,35.4,28.6,29.88,ESE,112,0.0,0.0,76,0.00,,---,0.00,VWS V14.00,2013-05-13 08:20:00,
2013-05-13 04:25:00,35.4,28.6,29.88,SSW,202,0.0,0.0,76,0.00,,---,0.00,VWS V14.00,2013-05-13 08:25:00,
2013-05-13 04:30:00,35.2,28.5,29.88,SSW,202,0.0,0.0,76,0.00,,---,0.00,VWS V14.00,2013-05-13 08:30:00,
2013-05-13 04:35:00,35.1,28.6,29.88,SSW,202,0.0,0.0,77,0.00,,---,0.00,VWS V14.00,2013-05-13 08:35:00,
2013-05-13 04:40:00,35.1,28.6,29.88,SSW,202,0.0,0.0,77,0.00,,---,0.00,VWS V14.00,2013-05-13 08:40:00,
2013-05-13 04:45:00,34.9,28.4,29.88,South,180,0.0,0.0,77,0.00,,---,0.00,VWS V14.00,2013-05-13 08:45:00,
2013-05-13 04:50:00,34.7,28.2,29.88,South,180,0.0,0.0,77,0.00,,---,0.00,VWS V14.00,2013-05-13 08:50:00,
2013-05-13 04:55:00,34.5,28.4,29.88,South,180,0.0,0.0,78,0.00,,---,0.00,VWS V14.00,2013-05-13 08:55:00,
2013-05-13 05:00:00,34.3,28.2,29.88,South,180,0.0,0.0,78,0.00,,---,0.00,VWS V14.00,2013-05-13 09:00:00,
2013-05-13 05:05:00,34.2,28.0,29.88,South,180,0.0,0.0,78,0.00,,---,0.00,VWS V14.00,2013-05-13 09:05:00,
2013-05-13 05:10:00,34.0,28.2,29.88,East,90,0.0,0.0,79,0.00,,---,0.00,VWS V14.00,2013-05-13 09:10:00,
2013-05-13 05:15:00,34.0,27.9,29.88,East,90,0.0,0.0,78,0.00,,---,0.00,VWS V14.00,2013-05-13 09:15:00,
2013-05-13 05:20:00,34.0,28.2,29.88,East,90,0.0,0.0,79,0.00,,---,0.00,VWS V14.00,2013-05-13 09:20:00,
2013-05-13 05:25:00,34.0,28.2,29.88,East,90,0.0,0.0,79,0.00,,---,0.00,VWS V14.00,2013-05-13 09:25:00,
2013-05-13 05:30:00,33.8,28.6,29.88,East,90,0.0,0.0,81,0.00,,---,0.00,VWS V14.00,2013-05-13 09:30:00,
2013-05-13 05:35:00,33.8,28.6,29.88,East,90,0.0,0.0,81,0.00,,---,0.00,VWS V14.00,2013-05-13 09:35:00,
2013-05-13 05:40:00,33.8,28.3,29.88,ENE,68,0.0,0.0,80,0.00,,---,0.00,VWS V14.00,2013-05-13 09:40:00,
2013-05-13 05:45:00,34.0,28.8,29.88,ENE,68,0.0,0.0,81,0.00,,---,0.00,VWS V14.00,2013-05-13 09:45:00,
2013-05-13 05:50:00,34.0,29.1,29.88,ENE,68,0.0,0.0,82,0.00,,---,0.00,VWS V14.00,2013-05-13 09:50:00,
2013-05-13 05:55:00,34.2,29.0,29.88,ESE,112,1.1,1.1,81,0.00,,---,0.00,VWS V14.00,2013-05-13 09:55:00,
2013-05-13 06:00:00,34.2,29.2,29.88,East,90,0.0,0.0,82,0.00,,---,0.00,VWS V14.00,2013-05-13 10:00:00,
2013-05-13 06:05:00,34.3,29.4,29.88,WSW,248,0.0,0.0,82,0.00,,---,0.00,VWS V14.00,2013-05-13 10:05:00,
2013-05-13 06:10:00,34.5,29.9,29.91,WSW,248,0.0,0.0,83,0.00,,---,0.00,VWS V14.00,2013-05-13 10:10:00,
2013-05-13 06:15:00,34.7,30.1,29.91,SSE,158,0.0,0.0,83,0.00,,---,0.00,VWS V14.00,2013-05-13 10:15:00,
2013-05-13 06:20:00,34.9,30.5,29.91,SSE,158,0.0,0.0,84,0.00,,---,0.00,VWS V14.00,2013-05-13 10:20:00,
2013-05-13 06:25:00,34.9,30.5,29.91,SSE,158,0.0,0.0,84,0.00,,---,0.00,VWS V14.00,2013-05-13 10:25:00,
2013-05-13 06:30:00,35.2,30.9,29.91,SSE,158,0.0,0.0,84,0.00,,---,0.00,VWS V14.00,2013-05-13 10:30:00,
2013-05-13 06:35:00,35.8,31.1,29.91,SSE,158,0.0,0.0,83,0.00,,---,0.00,VWS V14.00,2013-05-13 10:35:00,
2013-05-13 06:40:00,36.9,32.5,29.91,SSE,158,0.0,0.0,84,0.00,,---,0.00,VWS V14.00,2013-05-13 10:40:00,
2013-05-13 06:45:00,37.6,33.5,29.91,SE,135,0.0,0.0,85,0.00,,---,0.00,VWS V14.00,2013-05-13 10:45:00,
2013-05-13 06:50:00,38.8,35.0,29.91,South,180,2.9,3.6,86,0.00,,---,0.00,VWS V14.00,2013-05-13 10:50:00,
2013-05-13 06:55:00,40.1,35.1,29.91,West,270,2.2,3.8,82,0.00,,---,0.00,VWS V14.00,2013-05-13 10:55:00,
2013-05-13 07:00:00,41.0,34.0,29.91,ESE,112,2.2,2.2,76,0.00,,---,0.00,VWS V14.00,2013-05-13 11:00:00,
2013-05-13 07:05:00,42.1,33.0,29.91,WNW,292,1.1,2.0,70,0.00,,---,0.00,VWS V14.00,2013-05-13 11:05:00,
2013-05-13 07:10:00,43.0,32.0,29.94,SSW,202,2.7,5.6,65,0.00,,---,0.00,VWS V14.00,2013-05-13 11:10:00,
2013-05-13 07:15:00,43.5,32.2,29.94,NW,315,2.2,3.4,64,0.00,,---,0.00,VWS V14.00,2013-05-13 11:15:00,
2013-05-13 07:20:00,45.7,33.4,29.94,SSW,202,4.5,4.5,62,0.00,,---,0.00,VWS V14.00,2013-05-13 11:20:00,
2013-05-13 07:25:00,47.1,33.1,29.94,SSE,158,2.7,4.5,58,0.00,,---,0.00,VWS V14.00,2013-05-13 11:25:00,
2013-05-13 07:30:00,48.4,34.3,29.94,SSW,202,2.7,3.1,58,0.00,,---,0.00,VWS V14.00,2013-05-13 11:30:00,
2013-05-13 07:35:00,48.9,32.1,29.94,West,270,2.0,2.5,52,0.00,,---,0.00,VWS V14.00,2013-05-13 11:35:00,
2013-05-13 07:40:00,49.5,31.1,29.94,ESE,112,2.9,4.0,49,0.00,,---,0.00,VWS V14.00,2013-05-13 11:40:00,
2013-05-13 07:45:00,49.5,30.6,29.94,SW,225,3.6,3.6,48,0.00,,---,0.00,VWS V14.00,2013-05-13 11:45:00,
2013-05-13 07:50:00,49.8,30.9,29.94,SSW,202,3.8,3.8,48,0.00,,---,0.00,VWS V14.00,2013-05-13 11:50:00,
2013-05-13 07:55:00,50.7,31.8,29.94,South,180,3.1,3.1,48,0.00,,---,0.00,VWS V14.00,2013-05-13 11:55:00,
2013-05-13 08:00:00,52.0,32.4,29.94,WSW,248,2.7,2.7,47,0.00,,---,0.00,VWS V14.00,2013-05-13 12:00:00,
2013-05-13 08:05:00,52.0,30.8,29.94,SE,135,2.9,2.9,44,0.00,,---,0.00,VWS V14.00,2013-05-13 12:05:00,
2013-05-13 08:10:00,51.4,29.7,29.94,SSW,202,7.2,7.2,43,0.00,,---,0.00,VWS V14.00,2013-05-13 12:10:00,
2013-05-13 08:15:00,51.1,29.4,29.94,East,90,4.0,4.0,43,0.00,,---,0.00,VWS V14.00,2013-05-13 12:15:00,
2013-05-13 08:20:00,51.3,30.1,29.94,ENE,68,1.1,2.2,44,0.00,,---,0.00,VWS V14.00,2013-05-13 12:20:00,
2013-05-13 08:25:00,51.1,29.4,29.94,SSW,202,3.4,10.3,43,0.00,,---,0.00,VWS V14.00,2013-05-13 12:25:00,
2013-05-13 08:30:00,51.1,30.0,29.94,South,180,3.1,3.1,44,0.00,,---,0.00,VWS V14.00,2013-05-13 12:30:00,
2013-05-13 08:35:00,50.9,29.2,29.94,ESE,112,4.0,4.0,43,0.00,,---,0.00,VWS V14.00,2013-05-13 12:35:00,
2013-05-13 08:40:00,51.4,30.3,29.94,SE,135,1.6,1.6,44,0.00,,---,0.00,VWS V14.00,2013-05-13 12:40:00,
2013-05-13 08:45:00,50.5,28.3,29.94,SSW,202,3.1,5.4,42,0.00,,---,0.00,VWS V14.00,2013-05-13 12:45:00,
2013-05-13 08:50:00,51.1,28.8,29.94,NE,45,3.6,3.6,42,0.00,,---,0.00,VWS V14.00,2013-05-13 12:50:00,
2013-05-13 08:55:00,50.4,27.6,29.97,SW,225,2.0,6.3,41,0.00,,---,0.00,VWS V14.00,2013-05-13 12:55:00,
2013-05-13 09:00:00,49.3,27.2,29.97,WNW,292,5.8,5.8,42,0.00,,---,0.00,VWS V14.00,2013-05-13 13:00:00,
2013-05-13 09:05:00,49.6,28.1,29.97,ENE,68,2.7,2.7,43,0.00,,---,0.00,VWS V14.00,2013-05-13 13:05:00,
2013-05-13 09:10:00,49.8,28.2,29.97,SSE,158,3.4,3.4,43,0.00,,---,0.00,VWS V14.00,2013-05-13 13:10:00,
2013-05-13 09:15:00,49.6,28.1,29.97,WSW,248,4.7,4.7,43,0.00,,---,0.00,VWS V14.00,2013-05-13 13:15:00,
2013-05-13 09:20:00,49.5,27.9,29.97,SE,135,6.0,6.0,43,0.00,,---,0.00,VWS V14.00,2013-05-13 13:20:00,
2013-05-13 09:25:00,50.0,28.4,29.97,SE,135,2.0,2.5,43,0.00,,---,0.00,VWS V14.00,2013-05-13 13:25:00,
2013-05-13 09:30:00,50.0,27.8,29.97,South,180,2.5,2.5,42,0.00,,---,0.00,VWS V14.00,2013-05-13 13:30:00,
2013-05-13 09:35:00,51.1,28.8,29.97,SSW,202,2.9,3.1,42,0.00,,---,0.00,VWS V14.00,2013-05-13 13:35:00,
2013-05-13 09:40:00,51.8,29.5,29.97,WNW,292,1.3,2.9,42,0.00,,---,0.00,VWS V14.00,2013-05-13 13:40:00,
2013-05-13 09:45:00,51.1,28.8,29.97,SSW,202,3.6,3.8,42,0.00,,---,0.00,VWS V14.00,2013-05-13 13:45:00,
2013-05-13 09:50:00,52.3,29.4,29.97,East,90,3.1,3.1,41,0.00,,---,0.00,VWS V14.00,2013-05-13 13:50:00,
2013-05-13 09:55:00,52.3,30.0,29.97,ESE,112,1.6,2.5,42,0.00,,---,0.00,VWS V14.00,2013-05-13 13:55:00,
2013-05-13 10:00:00,52.7,29.1,29.97,SSW,202,4.0,4.0,40,0.00,,---,0.00,VWS V14.00,2013-05-13 14:00:00,
2013-05-13 10:05:00,55.0,31.8,29.97,SE,135,2.9,2.9,41,0.00,,---,0.00,VWS V14.00,2013-05-13 14:05:00,
2013-05-13 10:10:00,57.7,33.6,29.97,NNW,338,1.6,1.6,40,0.00,,---,0.00,VWS V14.00,2013-05-13 14:10:00,
2013-05-13 10:15:00,56.1,31.5,29.97,SE,135,3.6,3.6,39,0.00,,---,0.00,VWS V14.00,2013-05-13 14:15:00,
2013-05-13 10:20:00,53.4,29.1,29.97,SSW,202,4.9,4.9,39,0.00,,---,0.00,VWS V14.00,2013-05-13 14:20:00,
2013-05-13 10:25:00,53.1,29.4,29.97,ENE,68,7.2,7.2,40,0.00,,---,0.00,VWS V14.00,2013-05-13 14:25:00,
2013-05-13 10:30:00,55.8,31.8,29.97,ENE,68,2.7,2.7,40,0.00,,---,0.00,VWS V14.00,2013-05-13 14:30:00,
2013-05-13 10:35:00,55.6,31.7,29.97,NE,45,2.9,2.9,40,0.00,,---,0.00,VWS V14.00,2013-05-13 14:35:00,
2013-05-13 10:40:00,52.9,28.6,29.97,NW,315,2.5,3.8,39,0.00,,---,0.00,VWS V14.00,2013-05-13 14:40:00,
2013-05-13 10:45:00,52.5,28.9,29.97,WSW,248,2.5,2.5,40,0.00,,---,0.00,VWS V14.00,2013-05-13 14:45:00,
2013-05-13 10:50:00,54.5,30.7,29.97,WSW,248,2.7,2.7,40,0.00,,---,0.00,VWS V14.00,2013-05-13 14:50:00,
2013-05-13 10:55:00,54.5,30.7,29.97,South,180,3.8,3.8,40,0.00,,---,0.00,VWS V14.00,2013-05-13 14:55:00,
2013-05-13 11:00:00,55.0,30.5,29.97,ESE,112,3.1,4.3,39,0.00,,---,0.00,VWS V14.00,2013-05-13 15:00:00,
2013-05-13 11:05:00,55.0,30.5,29.97,East,90,2.0,2.5,39,0.00,,---,0.00,VWS V14.00,2013-05-13 15:05:00,
2013-05-13 11:10:00,54.3,29.3,29.97,SW,225,2.2,4.0,38,0.00,,---,0.00,VWS V14.00,2013-05-13 15:10:00,
2013-05-13 11:15:00,57.2,31.8,29.97,SSW,202,2.7,3.8,38,0.00,,---,0.00,VWS V14.00,2013-05-13 15:15:00,
2013-05-13 11:20:00,54.5,29.4,29.97,NNW,338,2.5,2.5,38,0.00,,---,0.00,VWS V14.00,2013-05-13 15:20:00,
2013-05-13 11:25:00,55.0,30.5,29.97,SSW,202,0.0,1.3,39,0.00,,---,0.00,VWS V14.00,2013-05-13 15:25:00,
2013-05-13 11:30:00,56.3,31.0,29.97,WSW,248,1.6,1.6,38,0.00,,---,0.00,VWS V14.00,2013-05-13 15:30:00,
2013-05-13 11:35:00,55.4,30.2,29.97,WNW,292,1.3,2.5,38,0.00,,---,0.00,VWS V14.00,2013-05-13 15:35:00,
2013-05-13 11:40:00,54.9,29.1,29.97,South,180,7.6,7.6,37,0.00,,---,0.00,VWS V14.00,2013-05-13 15:40:00,
2013-05-13 11:45:00,55.0,29.9,29.97,ENE,68,1.6,1.6,38,0.00,,---,0.00,VWS V14.00,2013-05-13 15:45:00,
2013-05-13 11:50:00,57.6,32.2,29.97,WSW,248,3.1,3.1,38,0.00,,---,0.00,VWS V14.00,2013-05-13 15:50:00,
2013-05-13 11:55:00,59.0,32.8,29.97,SSE,158,2.9,3.1,37,0.00,,---,0.00,VWS V14.00,2013-05-13 15:55:00,
2013-05-13 12:00:00,59.0,32.1,29.97,SE,135,4.3,4.3,36,0.00,,---,0.00,VWS V14.00,2013-05-13 16:00:00,
2013-05-13 12:05:00,59.2,31.6,29.97,SE,135,4.7,4.7,35,0.00,,---,0.00,VWS V14.00,2013-05-13 16:05:00,
2013-05-13 12:10:00,59.9,32.9,29.97,SSW,202,6.0,6.5,36,0.00,,---,0.00,VWS V14.00,2013-05-13 16:10:00,
2013-05-13 12:15:00,60.3,32.5,29.97,SSE,158,2.7,8.7,35,0.00,,---,0.00,VWS V14.00,2013-05-13 16:15:00,
2013-05-13 12:20:00,59.7,32.7,29.97,West,270,2.2,2.2,36,0.00,,---,0.00,VWS V14.00,2013-05-13 16:20:00,
2013-05-13 12:25:00,57.9,30.5,29.97,WNW,292,3.6,4.3,35,0.00,,---,0.00,VWS V14.00,2013-05-13 16:25:00,
2013-05-13 12:30:00,60.6,32.8,29.97,SE,135,3.4,3.6,35,0.00,,---,0.00,VWS V14.00,2013-05-13 16:30:00,
2013-05-13 12:35:00,61.7,33.8,29.97,South,180,1.6,3.6,35,0.00,,---,0.00,VWS V14.00,2013-05-13 16:35:00,
2013-05-13 12:40:00,62.1,32.6,29.97,NW,315,2.5,2.5,33,0.00,,---,0.00,VWS V14.00,2013-05-13 16:40:00,
2013-05-13 12:45:00,62.2,33.5,29.97,SE,135,3.4,3.4,34,0.00,,---,0.00,VWS V14.00,2013-05-13 16:45:00,
2013-05-13 12:50:00,63.9,35.0,29.97,NE,45,4.9,4.9,34,0.00,,---,0.00,VWS V14.00,2013-05-13 16:50:00,
2013-05-13 12:55:00,58.8,30.5,30.00,East,90,3.4,4.0,34,0.00,,---,0.00,VWS V14.00,2013-05-13 16:55:00,
2013-05-13 13:00:00,56.8,29.5,30.00,SW,225,3.4,5.4,35,0.00,,---,0.00,VWS V14.00,2013-05-13 17:00:00,
2013-05-13 13:05:00,56.7,29.3,30.00,SSE,158,4.0,4.0,35,0.00,,---,0.00,VWS V14.00,2013-05-13 17:05:00,
2013-05-13 13:10:00,60.3,32.5,30.00,East,90,4.0,4.0,35,0.00,,---,0.00,VWS V14.00,2013-05-13 17:10:00,
2013-05-13 13:15:00,59.2,30.1,30.00,SSW,202,6.3,7.6,33,0.00,,---,0.00,VWS V14.00,2013-05-13 17:15:00,
2013-05-13 13:20:00,61.5,32.2,30.00,ESE,112,2.9,2.9,33,0.00,,---,0.00,VWS V14.00,2013-05-13 17:20:00,
2013-05-13 13:25:00,62.1,33.4,29.97,SSE,158,4.5,4.5,34,0.00,,---,0.00,VWS V14.00,2013-05-13 17:25:00,
2013-05-13 13:30:00,61.9,30.1,29.97,South,180,4.9,5.8,30,0.00,,---,0.00,VWS V14.00,2013-05-13 17:30:00,
2013-05-13 13:35:00,61.7,30.0,29.97,South,180,2.0,3.1,30,0.00,,---,0.00,VWS V14.00,2013-05-13 17:35:00,
2013-05-13 13:40:00,63.3,32.2,29.97,ESE,112,4.9,4.9,31,0.00,,---,0.00,VWS V14.00,2013-05-13 17:40:00,
2013-05-13 13:45:00,63.1,30.4,29.97,SSW,202,2.0,4.5,29,0.00,,---,0.00,VWS V14.00,2013-05-13 17:45:00,
2013-05-13 13:50:00,60.6,29.0,29.97,SE,135,4.0,4.0,30,0.00,,---,0.00,VWS V14.00,2013-05-13 17:50:00,
2013-05-13 13:55:00,58.5,28.0,30.00,SW,225,2.7,2.7,31,0.00,,---,0.00,VWS V14.00,2013-05-13 17:55:00,
2013-05-13 14:00:00,58.1,29.2,30.00,SSW,202,5.8,5.8,33,0.00,,---,0.00,VWS V14.00,2013-05-13 18:00:00,
2013-05-13 14:05:00,57.9,27.5,30.00,WSW,248,0.9,2.0,31,0.00,,---,0.00,VWS V14.00,2013-05-13 18:05:00,
2013-05-13 14:10:00,58.3,27.0,29.97,SSW,202,3.6,6.0,30,0.00,,---,0.00,VWS V14.00,2013-05-13 18:10:00,
2013-05-13 14:15:00,57.2,26.9,29.97,South,180,2.0,2.7,31,0.00,,---,0.00,VWS V14.00,2013-05-13 18:15:00,
2013-05-13 14:20:00,60.1,30.1,29.97,SSW,202,2.2,3.4,32,0.00,,---,0.00,VWS V14.00,2013-05-13 18:20:00,
2013-05-13 14:25:00,63.0,30.2,29.97,SE,135,3.4,3.4,29,0.00,,---,0.00,VWS V14.00,2013-05-13 18:25:00,
2013-05-13 14:30:00,62.4,29.8,29.97,West,270,2.7,4.9,29,0.00,,---,0.00,VWS V14.00,2013-05-13 18:30:00,
2013-05-13 14:35:00,60.8,30.0,29.97,SE,135,2.7,2.7,31,0.00,,---,0.00,VWS V14.00,2013-05-13 18:35:00,
2013-05-13 14:40:00,58.5,28.0,29.97,SE,135,3.6,3.6,31,0.00,,---,0.00,VWS V14.00,2013-05-13 18:40:00,
2013-05-13 14:45:00,59.5,30.4,29.97,SSW,202,3.8,3.8,33,0.00,,---,0.00,VWS V14.00,2013-05-13 18:45:00,
2013-05-13 14:50:00,60.6,30.6,29.97,South,180,1.3,2.5,32,0.00,,---,0.00,VWS V14.00,2013-05-13 18:50:00,
2013-05-13 14:55:00,63.5,32.3,29.97,WNW,292,2.0,2.0,31,0.00,,---,0.00,VWS V14.00,2013-05-13 18:55:00,
2013-05-13 15:00:00,62.8,30.1,29.97,SSW,202,2.0,3.1,29,0.00,,---,0.00,VWS V14.00,2013-05-13 19:00:00,
2013-05-13 15:05:00,63.7,31.7,29.97,ENE,68,3.1,3.1,30,0.00,,---,0.00,VWS V14.00,2013-05-13 19:05:00,
2013-05-13 15:10:00,61.9,27.6,29.97,SSW,202,4.3,4.3,27,0.00,,---,0.00,VWS V14.00,2013-05-13 19:10:00,
2013-05-13 15:15:00,60.3,27.9,29.97,ESE,112,3.6,3.6,29,0.00,,---,0.00,VWS V14.00,2013-05-13 19:15:00,
2013-05-13 15:20:00,62.2,29.6,29.97,SSW,202,3.6,3.6,29,0.00,,---,0.00,VWS V14.00,2013-05-13 19:20:00,
2013-05-13 15:25:00,64.6,33.3,29.97,East,90,4.9,4.9,31,0.00,,---,0.00,VWS V14.00,2013-05-13 19:25:00,
2013-05-13 15:30:00,63.5,29.8,29.97,WSW,248,2.2,2.5,28,0.00,,---,0.00,VWS V14.00,2013-05-13 19:30:00,
2013-05-13 15:35:00,59.5,27.3,29.97,South,180,3.8,3.8,29,0.00,,---,0.00,VWS V14.00,2013-05-13 19:35:00,
2013-05-13 15:40:00,58.1,26.0,29.97,SSW,202,3.6,3.6,29,0.00,,---,0.00,VWS V14.00,2013-05-13 19:40:00,
2013-05-13 15:45:00,56.8,26.5,29.97,SSE,158,2.7,2.7,31,0.00,,---,0.00,VWS V14.00,2013-05-13 19:45:00,
2013-05-13 15:50:00,56.8,26.5,29.97,ESE,112,2.5,3.4,31,0.00,,---,0.00,VWS V14.00,2013-05-13 19:50:00,
2013-05-13 15:55:00,57.6,26.4,29.97,East,90,1.3,2.5,30,0.00,,---,0.00,VWS V14.00,2013-05-13 19:55:00,
2013-05-13 16:00:00,56.8,28.1,29.97,SW,225,2.0,2.5,33,0.00,,---,0.00,VWS V14.00,2013-05-13 20:00:00,
2013-05-13 16:05:00,55.8,24.8,29.97,East,90,2.7,3.6,30,0.00,,---,0.00,VWS V14.00,2013-05-13 20:05:00,
2013-05-13 16:10:00,55.2,25.1,29.97,South,180,1.6,2.0,31,0.00,,---,0.00,VWS V14.00,2013-05-13 20:10:00,
2013-05-13 16:15:00,55.6,26.2,29.97,East,90,5.6,5.6,32,0.00,,---,0.00,VWS V14.00,2013-05-13 20:15:00,
2013-05-13 16:20:00,56.7,27.2,29.97,South,180,3.1,3.1,32,0.00,,---,0.00,VWS V14.00,2013-05-13 20:20:00,
2013-05-13 16:25:00,58.3,27.8,29.97,SSE,158,2.5,4.3,31,0.00,,---,0.00,VWS V14.00,2013-05-13 20:25:00,
2013-05-13 16:30:00,58.1,29.9,29.97,ENE,68,1.6,1.6,34,0.00,,---,0.00,VWS V14.00,2013-05-13 20:30:00,
2013-05-13 16:35:00,56.3,26.8,29.97,West,270,1.6,1.6,32,0.00,,---,0.00,VWS V14.00,2013-05-13 20:35:00,
2013-05-13 16:40:00,55.2,25.9,29.97,SW,225,2.0,2.0,32,0.00,,---,0.00,VWS V14.00,2013-05-13 20:40:00,
2013-05-13 16:45:00,54.7,26.9,29.97,SSE,158,2.2,2.7,34,0.00,,---,0.00,VWS V14.00,2013-05-13 20:45:00,
2013-05-13 16:50:00,54.7,27.6,29.97,East,90,1.6,1.6,35,0.00,,---,0.00,VWS V14.00,2013-05-13 20:50:00,
2013-05-13 16:55:00,54.7,26.2,29.94,SSE,158,4.9,4.9,33,0.00,,---,0.00,VWS V14.00,2013-05-13 20:55:00,
2013-05-13 17:00:00,56.8,27.3,29.94,SSW,202,10.3,10.3,32,0.00,,---,0.00,VWS V14.00,2013-05-13 21:00:00,
2013-05-13 17:05:00,56.3,26.8,29.94,SE,135,2.2,4.9,32,0.00,,---,0.00,VWS V14.00,2013-05-13 21:05:00,
2013-05-13 17:10:00,55.4,26.8,29.97,East,90,3.4,6.3,33,0.00,,---,0.00,VWS V14.00,2013-05-13 21:10:00,
2013-05-13 17:15:00,54.1,26.4,29.97,WSW,248,3.4,3.6,34,0.00,,---,0.00,VWS V14.00,2013-05-13 21:15:00,
2013-05-13 17:20:00,54.9,27.0,29.97,East,90,0.9,1.6,34,0.00,,---,0.00,VWS V14.00,2013-05-13 21:20:00,
2013-05-13 17:25:00,54.3,25.9,29.97,East,90,0.0,2.9,33,0.00,,---,0.00,VWS V14.00,2013-05-13 21:25:00,
2013-05-13 17:30:00,54.3,26.6,29.97,ENE,68,4.0,5.4,34,0.00,,---,0.00,VWS V14.00,2013-05-13 21:30:00,
2013-05-13 17:35:00,53.6,25.9,29.97,South,180,2.5,4.0,34,0.00,,---,0.00,VWS V14.00,2013-05-13 21:35:00,
2013-05-13 17:40:00,53.6,25.2,29.94,ESE,112,2.2,2.2,33,0.00,,---,0.00,VWS V14.00,2013-05-13 21:40:00,
2013-05-13 17:45:00,53.1,26.1,29.94,East,90,2.0,3.4,35,0.00,,---,0.00,VWS V14.00,2013-05-13 21:45:00,
2013-05-13 17:50:00,52.5,25.7,29.94,SSE,158,4.5,4.5,35,0.00,,---,0.00,VWS V14.00,2013-05-13 21:50:00,
2013-05-13 17:55:00,52.2,26.0,29.94,South,180,2.9,3.6,36,0.00,,---,0.00,VWS V14.00,2013-05-13 21:55:00,
2013-05-13 18:00:00,52.2,26.0,29.94,SE,135,2.9,3.8,36,0.00,,---,0.00,VWS V14.00,2013-05-13 22:00:00,
2013-05-13 18:05:00,51.3,25.2,29.94,WSW,248,2.7,3.4,36,0.00,,---,0.00,VWS V14.00,2013-05-13 22:05:00,
2013-05-13 18:10:00,50.9,24.9,29.97,WSW,248,1.6,1.6,36,0.00,,---,0.00,VWS V14.00,2013-05-13 22:10:00,
2013-05-13 18:15:00,51.1,25.1,29.97,East,90,1.6,2.9,36,0.00,,---,0.00,VWS V14.00,2013-05-13 22:15:00,
2013-05-13 18:20:00,51.6,25.6,29.97,ENE,68,3.1,3.1,36,0.00,,---,0.00,VWS V14.00,2013-05-13 22:20:00,
2013-05-13 18:25:00,51.6,25.6,29.97,ENE,68,2.7,2.9,36,0.00,,---,0.00,VWS V14.00,2013-05-13 22:25:00,
2013-05-13 18:30:00,51.1,25.1,29.97,East,90,1.6,3.1,36,0.00,,---,0.00,VWS V14.00,2013-05-13 22:30:00,
2013-05-13 18:35:00,50.9,25.6,29.97,SSW,202,3.1,3.1,37,0.00,,---,0.00,VWS V14.00,2013-05-13 22:35:00,
2013-05-13 18:40:00,50.5,25.2,29.97,East,90,2.9,4.0,37,0.00,,---,0.00,VWS V14.00,2013-05-13 22:40:00,
2013-05-13 18:45:00,49.8,24.6,29.97,ESE,112,1.3,2.9,37,0.00,,---,0.00,VWS V14.00,2013-05-13 22:45:00,
2013-05-13 18:50:00,49.3,24.1,29.97,SE,135,0.9,3.1,37,0.00,,---,0.00,VWS V14.00,2013-05-13 22:50:00,
2013-05-13 18:55:00,48.7,23.6,29.97,East,90,0.0,1.6,37,0.00,,---,0.00,VWS V14.00,2013-05-13 22:55:00,
2013-05-13 19:00:00,48.2,23.2,29.97,SSW,202,0.0,2.0,37,0.00,,---,0.00,VWS V14.00,2013-05-13 23:00:00,
2013-05-13 19:04:00,48.0,23.6,29.97,East,90,2.7,2.9,38,0.00,,---,0.00,VWS V14.00,2013-05-13 23:04:00,
2013-05-13 19:09:00,47.7,23.3,29.97,ESE,112,0.9,0.9,38,0.00,,---,0.00,VWS V14.00,2013-05-13 23:09:00,
2013-05-13 19:14:00,47.7,23.9,29.97,ESE,112,3.8,3.8,39,0.00,,---,0.00,VWS V14.00,2013-05-13 23:14:00,
2013-05-13 19:19:00,47.3,23.0,29.97,North,0,1.3,2.7,38,0.00,,---,0.00,VWS V14.00,2013-05-13 23:19:00,
2013-05-13 19:25:00,47.1,23.5,29.97,ESE,112,0.9,0.9,39,0.00,,---,0.00,VWS V14.00,2013-05-13 23:25:00,
2013-05-13 19:29:00,46.8,23.1,29.97,SE,135,1.6,1.6,39,0.00,,---,0.00,VWS V14.00,2013-05-13 23:29:00,
2013-05-13 19:34:00,46.6,23.0,29.97,East,90,1.3,1.3,39,0.00,,---,0.00,VWS V14.00,2013-05-13 23:34:00,
2013-05-13 19:39:00,46.2,23.2,30.00,ESE,112,1.3,1.3,40,0.00,,---,0.00,VWS V14.00,2013-05-13 23:39:00,
2013-05-13 19:44:00,46.0,23.1,30.00,East,90,2.9,2.9,40,0.00,,---,0.00,VWS V14.00,2013-05-13 23:44:00,
2013-05-13 19:49:00,46.0,23.1,30.00,ESE,112,1.1,2.5,40,0.00,,---,0.00,VWS V14.00,2013-05-13 23:49:00,
2013-05-13 19:54:00,45.9,22.9,30.00,East,90,0.0,1.1,40,0.00,,---,0.00,VWS V14.00,2013-05-13 23:54:00,
2013-05-13 19:59:00,45.5,22.6,30.00,ESE,112,0.9,1.3,40,0.00,,---,0.00,VWS V14.00,2013-05-13 23:59:00,
2013-05-13 20:04:00,45.1,22.3,30.00,ESE,112,0.0,0.0,40,0.00,,---,0.00,VWS V14.00,2013-05-14 00:04:00,
2013-05-13 20:09:00,45.0,22.7,30.00,East,90,0.0,1.3,41,0.00,,---,0.00,VWS V14.00,2013-05-14 00:09:00,
2013-05-13 20:14:00,44.6,22.4,30.00,South,180,0.0,2.5,41,0.00,,---,0.00,VWS V14.00,2013-05-14 00:14:00,
2013-05-13 20:19:00,44.1,22.5,30.00,SE,135,0.0,0.0,42,0.00,,---,0.00,VWS V14.00,2013-05-14 00:19:00,
2013-05-13 20:24:00,43.7,22.7,30.03,SE,135,0.0,0.0,43,0.00,,---,0.00,VWS V14.00,2013-05-14 00:24:00,
2013-05-13 20:29:00,43.5,23.1,30.03,South,180,0.0,0.0,44,0.00,,---,0.00,VWS V14.00,2013-05-14 00:29:00,
2013-05-13 20:34:00,43.3,23.4,30.03,ESE,112,0.0,2.0,45,0.00,,---,0.00,VWS V14.00,2013-05-14 00:34:00,
2013-05-13 20:39:00,42.8,23.5,30.03,ESE,112,1.3,1.6,46,0.00,,---,0.00,VWS V14.00,2013-05-14 00:39:00,
2013-05-13 20:44:00,42.6,23.8,30.03,SE,135,0.0,0.0,47,0.00,,---,0.00,VWS V14.00,2013-05-14 00:44:00,
2013-05-13 20:49:00,42.4,23.6,30.03,SE,135,2.7,2.7,47,0.00,,---,0.00,VWS V14.00,2013-05-14 00:49:00,
2013-05-13 20:54:00,42.3,24.0,30.03,SE,135,3.4,3.4,48,0.00,,---,0.00,VWS V14.00,2013-05-14 00:54:00,
2013-05-13 20:59:00,42.4,24.1,30.03,SSE,158,0.0,0.0,48,0.00,,---,0.00,VWS V14.00,2013-05-14 00:59:00,
2013-05-13 21:04:00,42.3,24.0,30.03,ESE,112,0.0,0.0,48,0.00,,---,0.00,VWS V14.00,2013-05-14 01:04:00,
2013-05-13 21:09:00,42.8,24.0,30.03,East,90,0.0,1.6,47,0.00,,---,0.00,VWS V14.00,2013-05-14 01:09:00,
2013-05-13 21:14:00,42.8,24.5,30.03,East,90,2.0,2.0,48,0.00,,---,0.00,VWS V14.00,2013-05-14 01:14:00,
2013-05-13 21:19:00,43.3,25.0,30.03,East,90,0.0,0.0,48,0.00,,---,0.00,VWS V14.00,2013-05-14 01:19:00,
2013-05-13 21:24:00,43.3,25.0,30.03,East,90,0.0,0.0,48,0.00,,---,0.00,VWS V14.00,2013-05-14 01:24:00,
2013-05-13 21:29:00,43.3,25.5,30.03,East,90,0.0,0.0,49,0.00,,---,0.00,VWS V14.00,2013-05-14 01:29:00,
2013-05-13 21:34:00,43.3,25.5,30.03,East,90,0.0,0.0,49,0.00,,---,0.00,VWS V14.00,2013-05-14 01:34:00,
2013-05-13 21:39:00,43.3,25.5,30.06,ENE,68,0.0,0.0,49,0.00,,---,0.00,VWS V14.00,2013-05-14 01:39:00,
2013-05-13 21:44:00,43.5,25.6,30.06,SSE,158,0.0,0.0,49,0.00,,---,0.00,VWS V14.00,2013-05-14 01:44:00,
2013-05-13 21:49:00,43.5,25.6,30.06,SSE,158,0.0,0.0,49,0.00,,---,0.00,VWS V14.00,2013-05-14 01:49:00,
2013-05-13 21:54:00,43.3,25.5,30.06,SSE,158,0.0,0.0,49,0.00,,---,0.00,VWS V14.00,2013-05-14 01:54:00,
2013-05-13 21:59:00,43.3,26.0,30.06,SE,135,0.0,2.0,50,0.00,,---,0.00,VWS V14.00,2013-05-14 01:59:00,
2013-05-13 22:04:00,43.3,26.0,30.06,SE,135,0.0,0.0,50,0.00,,---,0.00,VWS V14.00,2013-05-14 02:04:00,
2013-05-13 22:09:00,43.2,25.8,30.06,East,90,0.9,2.0,50,0.00,,---,0.00,VWS V14.00,2013-05-14 02:09:00,
2013-05-13 22:14:00,43.0,25.6,30.06,East,90,0.0,0.0,50,0.00,,---,0.00,VWS V14.00,2013-05-14 02:14:00,
2013-05-13 22:19:00,42.8,25.5,30.06,East,90,0.0,1.1,50,0.00,,---,0.00,VWS V14.00,2013-05-14 02:19:00,
2013-05-13 22:24:00,42.6,25.8,30.03,East,90,0.0,0.0,51,0.00,,---,0.00,VWS V14.00,2013-05-14 02:24:00,
2013-05-13 22:29:00,42.4,26.1,30.03,East,90,0.0,0.0,52,0.00,,---,0.00,VWS V14.00,2013-05-14 02:29:00,
2013-05-13 22:34:00,42.1,26.2,30.03,East,90,0.0,0.0,53,0.00,,---,0.00,VWS V14.00,2013-05-14 02:34:00,
2013-05-13 22:39:00,41.7,25.9,30.06,East,90,0.0,0.0,53,0.00,,---,0.00,VWS V14.00,2013-05-14 02:39:00,
2013-05-13 22:44:00,41.4,26.4,30.06,East,90,0.0,0.0,55,0.00,,---,0.00,VWS V14.00,2013-05-14 02:44:00,
2013-05-13 22:49:00,41.2,25.8,30.06,East,90,0.0,0.0,54,0.00,,---,0.00,VWS V14.00,2013-05-14 02:49:00,
2013-05-13 22:54:00,41.0,25.6,30.03,East,90,0.0,0.0,54,0.00,,---,0.00,VWS V14.00,2013-05-14 02:54:00,
2013-05-13 22:59:00,40.6,25.8,30.03,East,90,0.0,0.0,55,0.00,,---,0.00,VWS V14.00,2013-05-14 02:59:00,
2013-05-13 23:04:00,40.5,26.0,30.03,East,90,0.0,0.0,56,0.00,,---,0.00,VWS V14.00,2013-05-14 03:04:00,
2013-05-13 23:09:00,40.5,25.6,30.03,East,90,0.0,0.0,55,0.00,,---,0.00,VWS V14.00,2013-05-14 03:09:00,
2013-05-13 23:14:00,40.6,26.2,30.03,East,90,0.0,0.0,56,0.00,,---,0.00,VWS V14.00,2013-05-14 03:14:00,
2013-05-13 23:19:00,40.6,26.2,30.03,East,90,0.0,0.0,56,0.00,,---,0.00,VWS V14.00,2013-05-14 03:19:00,
2013-05-13 23:24:00,40.6,26.6,30.03,East,90,0.0,0.0,57,0.00,,---,0.00,VWS V14.00,2013-05-14 03:24:00,
2013-05-13 23:29:00,40.6,26.6,30.03,East,90,0.0,0.0,57,0.00,,---,0.00,VWS V14.00,2013-05-14 03:29:00,
2013-05-13 23:34:00,40.8,26.8,30.03,East,90,0.0,0.0,57,0.00,,---,0.00,VWS V14.00,2013-05-14 03:34:00,
2013-05-13 23:39:00,40.8,27.6,30.03,East,90,0.0,0.0,59,0.00,,---,0.00,VWS V14.00,2013-05-14 03:39:00,
2013-05-13 23:44:00,40.8,28.0,30.03,East,90,0.0,0.0,60,0.00,,---,0.00,VWS V14.00,2013-05-14 03:44:00,
2013-05-13 23:49:00,40.8,28.0,30.03,East,90,0.0,0.0,60,0.00,,---,0.00,VWS V14.00,2013-05-14 03:49:00,
2013-05-13 23:54:00,40.8,28.4,30.03,East,90,0.0,0.0,61,0.00,,---,0.00,VWS V14.00,2013-05-14 03:54:00,
2013-05-13 23:59:00,40.6,28.3,30.03,East,90,0.0,0.0,61,0.00,,---,0.00,VWS V14.00,2013-05-14 03:59:00,